Previsão horária em Allate

Hoje, 14 Junho, Segunda-feira

Tempo Temperatura Precipitação Vento Pressão Humidade
00:00 +13°C° 0 mm 1 m/s 636 mmHg 91%
01:00 +12°C° 0 mm 1 m/s 636 mmHg 89%
02:00 +12°C° 0 mm 1 m/s 636 mmHg 88%
03:00 +10°C° 0 mm 2 m/s 636 mmHg 85%
04:00 +12°C° 0 mm 1 m/s 636 mmHg 82%
05:00 +13°C° 0 mm 1 m/s 637 mmHg 78%
06:00 +14°C° 0 mm 1 m/s 637 mmHg 75%
07:00 +15°C° 0 mm 1 m/s 637 mmHg 70%
08:00 +18°C° 0 mm 1 m/s 637 mmHg 65%
09:00 +19°C° 0 mm 1 m/s 638 mmHg 60%
10:00 +19°C° 0 mm 2 m/s 638 mmHg 59%
11:00 +20°C° 0 mm 2 m/s 638 mmHg 58%
12:00 +21°C° 0 mm 2 m/s 638 mmHg 58%
13:00 +21°C° 0.1 mm 2 m/s 638 mmHg 61%
14:00 +21°C° 0.1 mm 2 m/s 638 mmHg 64%
15:00 +20°C° 0 mm 3 m/s 638 mmHg 67%
16:00 +20°C° 0 mm 2 m/s 638 mmHg 71%
17:00 +19°C° 0 mm 2 m/s 638 mmHg 74%
18:00 +19°C° 0 mm 1 m/s 638 mmHg 78%
19:00 +18°C° 0 mm 1 m/s 638 mmHg 80%
20:00 +16°C° 0 mm 1 m/s 637 mmHg 83%
21:00 +14°C° 0 mm 1 m/s 637 mmHg 85%
22:00 +14°C° 0 mm 1 m/s 637 mmHg 83%
23:00 +14°C° 0 mm 2 m/s 637 mmHg 80%

Amanhã, 15 Junho, Terça-feira

Tempo Temperatura Precipitação Vento Pressão Humidade
00:00 +13°C° 0 mm 2 m/s 636 mmHg 78%
01:00 +13°C° 0 mm 2 m/s 636 mmHg 75%
02:00 +13°C° 0 mm 2 m/s 636 mmHg 72%
03:00 +13°C° 0 mm 2 m/s 635 mmHg 70%
04:00 +14°C° 0 mm 2 m/s 636 mmHg 68%
05:00 +15°C° 0 mm 2 m/s 636 mmHg 67%
06:00 +16°C° 0 mm 1 m/s 636 mmHg 65%
07:00 +19°C° 0 mm 1 m/s 636 mmHg 60%
08:00 +21°C° 0 mm 1 m/s 636 mmHg 54%
09:00 +23°C° 0 mm 1 m/s 637 mmHg 48%
10:00 +24°C° 0 mm 1 m/s 637 mmHg 48%
11:00 +24°C° 0 mm 2 m/s 637 mmHg 48%
12:00 +25°C° 0 mm 2 m/s 637 mmHg 48%
13:00 +25°C° 0.1 mm 2 m/s 637 mmHg 49%
14:00 +25°C° 0.1 mm 3 m/s 637 mmHg 51%
15:00 +25°C° 0.1 mm 3 m/s 637 mmHg 52%
16:00 +24°C° 0.2 mm 2 m/s 637 mmHg 61%
17:00 +21°C° 0.2 mm 2 m/s 637 mmHg 70%
18:00 +20°C° 0.2 mm 2 m/s 637 mmHg 79%
19:00 +19°C° 0.1 mm 1 m/s 637 mmHg 82%
20:00 +18°C° 0.1 mm 1 m/s 637 mmHg 84%
21:00 +15°C° 0.1 mm 1 m/s 637 mmHg 87%
22:00 +15°C° 0 mm 1 m/s 637 mmHg 85%
23:00 +15°C° 0 mm 1 m/s 637 mmHg 83%

Depois de amanhã, 16 Junho, Quarta-feira

Tempo Temperatura Precipitação Vento Pressão Humidade
00:00 +14°C° 0 mm 2 m/s 637 mmHg 81%
01:00 +14°C° 0 mm 2 m/s 637 mmHg 79%
02:00 +14°C° 0 mm 2 m/s 637 mmHg 77%
03:00 +14°C° 0 mm 2 m/s 637 mmHg 75%
04:00 +15°C° 0 mm 2 m/s 637 mmHg 73%
05:00 +16°C° 0 mm 1 m/s 638 mmHg 71%
06:00 +18°C° 0 mm 1 m/s 638 mmHg 69%
07:00 +20°C° 0 mm 1 m/s 638 mmHg 65%
08:00 +20°C° 0 mm 2 m/s 638 mmHg 60%
09:00 +23°C° 0 mm 2 m/s 638 mmHg 55%
10:00 +24°C° 0 mm 2 m/s 638 mmHg 54%
11:00 +25°C° 0 mm 2 m/s 638 mmHg 53%
12:00 +26°C° 0 mm 2 m/s 639 mmHg 53%
13:00 +26°C° 0 mm 3 m/s 638 mmHg 54%
14:00 +26°C° 0 mm 3 m/s 638 mmHg 55%
15:00 +26°C° 0 mm 3 m/s 638 mmHg 57%
16:00 +26°C° 0.1 mm 2 m/s 638 mmHg 62%
17:00 +25°C° 0.1 mm 2 m/s 638 mmHg 67%
18:00 +24°C° 0.1 mm 2 m/s 637 mmHg 72%
19:00 +21°C° 0 mm 2 m/s 637 mmHg 74%
20:00 +20°C° 0 mm 2 m/s 637 mmHg 76%
21:00 +18°C° 0 mm 3 m/s 636 mmHg 78%
22:00 +17°C° 0 mm 3 m/s 636 mmHg 74%
23:00 +17°C° 0 mm 3 m/s 636 mmHg 71%

17 Junho, Quinta-feira

Tempo Temperatura Precipitação Vento Pressão Humidade
00:00 +16°C° 0 mm 3 m/s 635 mmHg 67%
01:00 +16°C° 0 mm 3 m/s 635 mmHg 62%
02:00 +16°C° 0 mm 3 m/s 635 mmHg 58%
03:00 +16°C° 0 mm 3 m/s 635 mmHg 53%
04:00 +17°C° 0 mm 3 m/s 635 mmHg 55%
05:00 +17°C° 0 mm 2 m/s 635 mmHg 56%
06:00 +18°C° 0 mm 2 m/s 635 mmHg 58%
07:00 +21°C° 0 mm 2 m/s 636 mmHg 51%
08:00 +24°C° 0 mm 1 m/s 636 mmHg 45%
09:00 +27°C° 0 mm 1 m/s 637 mmHg 38%
10:00 +27°C° 0 mm 2 m/s 637 mmHg 41%
11:00 +27°C° 0 mm 2 m/s 637 mmHg 45%
12:00 +27°C° 0 mm 3 m/s 638 mmHg 48%
13:00 +27°C° 0.2 mm 3 m/s 638 mmHg 52%
14:00 +26°C° 0.2 mm 3 m/s 638 mmHg 56%
15:00 +25°C° 0.2 mm 3 m/s 638 mmHg 61%
16:00 +25°C° 0.3 mm 3 m/s 639 mmHg 65%
17:00 +24°C° 0.3 mm 2 m/s 639 mmHg 69%
18:00 +23°C° 0.3 mm 1 m/s 639 mmHg 73%
19:00 +21°C° 0.1 mm 1 m/s 639 mmHg 78%
20:00 +20°C° 0.1 mm 1 m/s 639 mmHg 83%
21:00 +18°C° 0.1 mm 1 m/s 639 mmHg 89%
22:00 +18°C° 0.4 mm 1 m/s 639 mmHg 88%
23:00 +16°C° 0.4 mm 1 m/s 639 mmHg 88%

18 Junho, Sexta-feira

Tempo Temperatura Precipitação Vento Pressão Humidade
00:00 +16°C° 0.4 mm 1 m/s 639 mmHg 87%
01:00 +16°C° 0.3 mm 1 m/s 639 mmHg 87%
02:00 +15°C° 0.3 mm 1 m/s 639 mmHg 86%
03:00 +15°C° 0.3 mm 2 m/s 639 mmHg 86%
04:00 +15°C° 0.5 mm 1 m/s 639 mmHg 84%
05:00 +16°C° 0.5 mm 1 m/s 640 mmHg 83%
06:00 +16°C° 0.5 mm 1 m/s 640 mmHg 81%
07:00 +19°C° 0 mm 1 m/s 640 mmHg 76%
08:00 +20°C° 0 mm 1 m/s 641 mmHg 70%
09:00 +21°C° 0 mm 2 m/s 641 mmHg 65%
10:00 +21°C° 0.4 mm 2 m/s 641 mmHg 64%
11:00 +23°C° 0.4 mm 2 m/s 641 mmHg 64%
12:00 +23°C° 0.4 mm 2 m/s 642 mmHg 63%
13:00 +23°C° 1.1 mm 2 m/s 642 mmHg 65%
14:00 +23°C° 1.1 mm 2 m/s 642 mmHg 68%
15:00 +21°C° 1.1 mm 2 m/s 642 mmHg 70%
16:00 +20°C° 1.1 mm 2 m/s 642 mmHg 74%
17:00 +19°C° 1.1 mm 2 m/s 642 mmHg 78%
18:00 +18°C° 1.1 mm 2 m/s 642 mmHg 83%
19:00 +18°C° 0.3 mm 2 m/s 642 mmHg 86%
20:00 +18°C° 0.3 mm 1 m/s 643 mmHg 90%
21:00 +16°C° 0.3 mm 1 m/s 643 mmHg 94%
22:00 +16°C° 0.1 mm 1 m/s 643 mmHg 94%
23:00 +16°C° 0.1 mm 1 m/s 643 mmHg 94%

19 Junho, Sábado

Tempo Temperatura Precipitação Vento Pressão Humidade
00:00 +15°C° 0.1 mm 1 m/s 643 mmHg 94%
01:00 +15°C° 0 mm 1 m/s 643 mmHg 93%
02:00 +15°C° 0 mm 1 m/s 643 mmHg 92%
03:00 +14°C° 0 mm 0 m/s 643 mmHg 90%
04:00 +14°C° 0 mm 0 m/s 643 mmHg 88%
05:00 +15°C° 0 mm 1 m/s 643 mmHg 86%
06:00 +16°C° 0 mm 1 m/s 643 mmHg 84%
07:00 +18°C° 0 mm 1 m/s 644 mmHg 79%
08:00 +18°C° 0 mm 2 m/s 644 mmHg 73%
09:00 +19°C° 0 mm 2 m/s 644 mmHg 68%
10:00 +20°C° 0 mm 2 m/s 644 mmHg 67%
11:00 +20°C° 0 mm 3 m/s 644 mmHg 66%
12:00 +20°C° 0 mm 3 m/s 644 mmHg 65%
13:00 +20°C° 0 mm 3 m/s 644 mmHg 65%
14:00 +20°C° 0 mm 3 m/s 644 mmHg 65%
15:00 +20°C° 0 mm 2 m/s 644 mmHg 66%
16:00 +20°C° 0 mm 2 m/s 644 mmHg 67%
17:00 +19°C° 0 mm 2 m/s 644 mmHg 69%
18:00 +20°C° 0 mm 1 m/s 644 mmHg 71%
19:00 +18°C° 0 mm 1 m/s 643 mmHg 75%
20:00 +16°C° 0 mm 1 m/s 643 mmHg 79%
21:00 +15°C° 0 mm 1 m/s 643 mmHg 83%
22:00 +15°C° 0 mm 1 m/s 643 mmHg 82%
23:00 +15°C° 0 mm 1 m/s 643 mmHg 82%
Mostrar mais